Regional Weather Roundup
Issued by NWS

Home | Current Version | Previous Version | Text Only | Print | Product List | Glossary On
Versions: 1 2 3 4 5 6 7 8 9 10 11 12 13 14 15 16 17 18 19 20 21 22 23 24 25 26 27 28 29 30 31 32 33 34 35 36 37 38 39 40 41 42 43 44 45 46 47 48 49 50
000
ASUS43 KBIS 030710
RWRND

NORTH DAKOTA REGIONAL WEATHER ROUNDUP
NATIONAL WEATHER SERVICE BISMARCK ND
200 AM CDT THU SEP 03 2015

NOTE: "FAIR" INDICATES FEW OR NO CLOUDS BELOW 12,000 FEET WITH NO
SIGNIFICANT WEATHER AND/OR OBSTRUCTIONS TO VISIBILITY.


NDZ001>003-009>011-017-030800-
NORTHWEST NORTH DAKOTA

CITY           SKY/WX    TMP DP  RH WIND       PRES   REMARKS
WILLISTON      MOCLDY    72  53  51 S3        29.64S
MINOT          PTCLDY    70  66  87 SE7       29.68F
MINOT AFB      PTCLDY    69  68  99 SE9       29.67S
$$

NDZ018>021-031>035-040>046-030800-
SOUTHWEST NORTH DAKOTA

CITY           SKY/WX    TMP DP  RH WIND       PRES   REMARKS
BISMARCK       PTCLDY    71  69  93 E7        29.71F
DICKINSON      PTCLDY    68  58  70 S9        29.69F
GARRISON         N/A     73  68  84 SE9       29.70F
HETTINGER ARPT CLEAR     68  59  73 SE7       29.73F
$$

NDZ004>008-012>016-024-026-027-054-030800-
NORTHEAST NORTH DAKOTA

CITY           SKY/WX    TMP DP  RH WIND       PRES   REMARKS
GRAND FORKS    PTCLDY    71  67  87 SE15      29.79S
GRND FRKS AFB  CLEAR     71  67  89 S9        29.79F
DEVILS LAKE    MOCLDY    72  64  78 SE14      29.76F
$$

NDZ022-023-025-028>030-036>039-047>053-030800-
SOUTHEAST NORTH DAKOTA

CITY           SKY/WX    TMP DP  RH WIND       PRES   REMARKS
FARGO          CLEAR     73  68  84 SE13      29.80F
JAMESTOWN      CLOUDY    73  71  93 SE13      29.76F FOG
$$



USA.gov is the U.S. government's official web portal to all federal, state and local government web resources and services.